Location: Cutler
(25.6150°N, 80.3110°W)
Time: 11:27:18
(UTC-05:00)

Vanguard 3 - Visible Passes

Search period start: 22 November 2017 00:00
Search period end: 02 December 2017 00:00
Orbit: 509 x 3263 km, 33.3° (Epoch: 21 November)

Date Brightness Start Highest point End Pass type
(mag) Time Alt. Az. Time Alt. Az. Time Alt. Az.
22 Nov 10.8 01:57:19 30° SSE 01:57:19 30° SSE 02:04:02 10° SE visible
22 Nov 10.7 04:01:53 24° SW 04:01:53 24° SW 04:13:25 10° S visible
22 Nov 9.0 19:45:50 10° W 19:54:40 62° N 19:58:06 50° NE visible
22 Nov 10.3 21:58:30 10° WNW 22:02:40 29° WNW 22:02:40 29° WNW visible
23 Nov 11.4 00:47:34 13° SE 00:47:34 13° SE 00:48:40 10° SE visible
23 Nov 10.7 02:52:09 31° S 02:52:09 31° S 03:01:16 10° SSE visible
23 Nov 8.5 18:32:22 10° W 18:39:25 70° NNW 18:48:18 21° ENE visible
23 Nov 9.3 20:44:29 10° WNW 20:52:51 57° NNW 20:52:51 57° NNW visible
23 Nov 11.1 22:57:18 10° WNW 22:57:26 10° WNW 22:57:26 10° WNW visible
24 Nov 11.0 01:42:20 23° SSE 01:42:20 23° SSE 01:47:19 10° SE visible
24 Nov 10.9 03:46:54 20° SW 03:46:54 20° SW 03:56:02 10° S visible
24 Nov 8.9 19:30:48 10° W 19:39:00 59° N 19:43:03 43° NE visible
24 Nov 10.1 21:43:06 10° WNW 21:47:37 32° WNW 21:47:37 32° WNW visible
25 Nov 10.9 02:37:01 25° S 02:37:01 25° S 02:44:13 10° SSE visible
25 Nov 8.4 18:17:24 10° W 18:23:55 63° N 18:33:15 17° ENE visible
25 Nov 9.1 20:29:19 10° WNW 20:37:49 60° N 20:37:49 60° N visible
25 Nov 10.9 22:41:44 10° WNW 22:42:23 13° WNW 22:42:23 13° WNW visible
26 Nov 11.2 01:27:04 18° SSE 01:27:04 18° SSE 01:30:21 10° SSE visible
26 Nov 11.1 03:31:37 16° SSW 03:31:37 16° SSW 03:38:08 10° S visible
26 Nov 8.8 19:15:48 10° WNW 19:23:24 56° N 19:28:03 38° ENE visible
26 Nov 9.9 21:27:45 10° WNW 21:32:37 36° WNW 21:32:37 36° WNW visible
27 Nov 11.1 02:21:36 19° S 02:21:36 19° S 02:26:54 10° SSE visible
27 Nov 8.4 18:02:29 10° W 18:08:29 56° N 18:18:17 13° ENE visible
27 Nov 8.9 20:14:10 10° WNW 20:22:51 62° N 20:22:51 62° N visible
27 Nov 10.8 22:26:14 10° WNW 22:27:25 15° WNW 22:27:25 15° WNW visible
28 Nov 11.4 01:11:30 13° SSE 01:11:30 13° SSE 01:13:09 10° SSE visible
28 Nov 11.3 03:16:03 12° SSW 03:16:03 12° SSW 03:19:21 10° SSW visible
28 Nov 8.7 19:00:49 10° WNW 19:07:51 53° N 19:13:07 32° ENE visible
28 Nov 9.6 21:12:26 10° WNW 21:17:42 42° WNW 21:17:42 42° WNW visible
29 Nov11.400:01:21SE00:01:21SE23:22:16WNWvisible
29 Nov 11.3 02:05:53 15° S 02:05:53 15° S 02:09:12 10° S visible
29 Nov 8.3 17:47:35 10° W 17:53:08 50° N 18:02:53 10° ENE visible
29 Nov 8.8 19:59:01 10° WNW 20:07:18 63° NNE 20:08:00 62° NNE visible
29 Nov 10.6 22:10:48 10° WNW 22:12:35 18° WNW 22:12:35 18° WNW visible
30 Nov 11.5 00:55:38 10° SSE 00:55:38 10° SSE 00:55:41 10° SSE visible
30 Nov 8.5 18:45:50 10° WNW 18:52:21 52° N 18:58:21 27° ENE visible
30 Nov 9.3 20:57:09 10° WNW 21:02:56 50° WNW 21:02:56 50° WNW visible
30 Nov11.323:45:19SE23:45:19SE23:07:31WNWvisible
01 Dec 11.5 01:49:50 12° S 01:49:50 12° S 01:51:03 10° S visible
01 Dec 8.6 19:43:54 10° WNW 19:51:33 66° NNE 19:53:21 58° ENE visible
01 Dec 10.3 21:55:27 10° WNW 21:57:56 22° WNW 21:57:56 22° WNW visible
